STARLINK-32883, 62806

Orbit data source: Space-Track

STARLINK-32883, 62806 is a payload satellite owned by SpaceX/Seattle (US) in LEO that was launched on Fri, 24 Jan 2025 UTC via an FALCON 9 launch vehicle from the Air Force Western Test Range (AFWTR). Payload-class satellites include a variety of spacecraft equipped with specific instruments for various scientific and technological missions. These include communications satellites like Starlink; space stations such as the ISS; scientific satellites like the Hubble; Earth observation satellites from companies like Planet Labs, Umbra, and HawkEye 360; GPS; miniature CubeSats for education and research; and military/defense satellites.

Loading next visibility...
Identifier
62806, 2025-018A
Orbit
LEO
Last TLE update
12 hours ago
Origin
Manufacturer
SpaceX/Seattle
Mission
Operational Commercial Communications
Bus & Motor
STARLINK V2M, Unknown motor
Mass
730 kg wet, ~700 kg dry
Launch date (UTC)
2025-01-24 (3 months ago)
Launch vehicle
FALCON 9
Launch site
Air Force Western Test Range (AFWTR)
Object type
Payload
Rocket body
Debris
Shape & HBR
Box + 2 Pan, 29 m
Radar Cross Section
33.884 m², Large (>1 m²)

Expand to show TLE details & history

TLE from 12 hours ago
0 STARLINK-32883
1 62806U 25018A   25128.80614974  .00000035  00000-0  10862-4 0  9994
2 62806  53.1621 287.5834 0000975  84.6098 275.5018 15.39619195 17381
Epoch: 2025-05-08T19:20Z
Definitive object data (Epoch: 2025-05-08T19:20:51.337Z)
Latitude
-0.00003°
Longitude
130.49811°
Altitude
448.074 km
Speed
7.645 km/s
True Right ascension
19h 10m 20s
True Declination
0° 00' 00"
Sunlit
Object was in full shadow at TLE epoch
Visualization TLE readout
Latitude
-19.41592°
Longitude
-36.59386°
Altitude
452.918 km
Speed
7.641 km/s
Apparent Right ascension
06h 01m 51s
Apparent Declination
-34° 19' 40"
Sunlit
Object is in daylight
Visualization observer readout
Local Sidereal Time
15:17:09
Azimuth
266.457° W
Elevation
-56.995°
Doppler factor
1
Orbital elements
Apogee altitude
448.157 km
Perigee altitude
446.826 km
Semi-major axis
6,825.629 km
Eccentricity
0.0000975
Inclination
53.1621°
RAAN
287.5834°
Arg. of periapsis
84.6098°
True anomaly
275.49068°
Mean anomaly
275.5018°
Eccentric anomaly
275.49624°
Mean motion
3.84883 °/min
BSTAR
0.000010862
Orbital period
93.53 mins
Loading maneuver chart data...
Loading SW <> Apogee altitude chart data...
Loading historical data...
Loading historical data...
Loading historical data...
Loading historical data...
Loading historical data...
Loading historical data...
Loading historical data...

STARLINK-32883 Visibility forecast

Observer location: undefined°, undefined°

Span
Click to sort rows by Start time (UTC) header in descending order
Start Az.
Max El. time (UTC)
Max El. Az.
Max El.
End time (UTC)
End Az.
5 mins2025-05-09 12:39:12.753Z191.258° SSW2025-05-09 12:41:12.753Z142.863° SSE29.182°2025-05-09 12:44:12.753Z69.796° E
4 mins2025-05-09 14:17:12.753Z287.013° WNW2025-05-09 14:19:12.753Z344.849° N24.892°2025-05-09 14:21:12.753Z25.877° NE
4 mins2025-05-09 19:12:12.753Z345.003° N2025-05-09 19:14:12.753Z46.897° ENE26.98°2025-05-09 19:16:12.753Z89.825° E
4 mins2025-05-09 20:49:12.753Z276.22° WNW2025-05-09 20:51:12.753Z221.74° SW26.198°2025-05-09 20:53:12.753Z174.71° S
|